Location: *
(44.3925°N, 5.4708°E)
Time: 05:41:01
(UTC+00:00)

MetOp-A - Pass Details

Date: 18 September 2019
Orbit: 820 x 821 km, 98.6° (Epoch: 15 October)

Event Time Altitude Azimuth Distance (km) Brightness Sun altitude
Exits shadow 19:37:08 41° 123° (ESE) 1,183 4.5 -20.4°
Maximum altitude 19:38:42 56° 71° (ENE) 978 4.2 -20.7°
Drops below altitude 10° 19:43:56 10° 354° (N) 2,427 7.0 -21.5°
Sets 19:46:20 0° 351° (N) 3,364 7.8 -21.9°
